• Em Portugal
  • Lista de países
  • Para 7 dias
  • Temperatura da água
  • Mapas de satélite
  • Mapa do tempo
  • Widgets de tempo
  • user-avatar
    Iniciar Sessão

    Previsão horária em Saidpur

    Hoje, 20 Julho, Sexta-feira

    Tempo Temperatura Precipitação Vento Pressão Humidade
    00:00 +36°C° 0 mm 1 m/s 745 mmHg 58%
    01:00 +36°C° 0 mm 1 m/s 744 mmHg 59%
    02:00 +35°C° 0 mm 1 m/s 744 mmHg 61%
    03:00 +35°C° 0 mm 1 m/s 744 mmHg 63%
    04:00 +34°C° 0 mm 1 m/s 744 mmHg 64%
    05:00 +34°C° 0 mm 1 m/s 744 mmHg 66%
    06:00 +35°C° 0 mm 2 m/s 744 mmHg 68%
    07:00 +36°C° 0 mm 2 m/s 745 mmHg 65%
    08:00 +36°C° 0 mm 2 m/s 745 mmHg 62%
    09:00 +37°C° 0 mm 3 m/s 745 mmHg 59%
    10:00 +38°C° 0 mm 3 m/s 745 mmHg 55%
    11:00 +39°C° 0 mm 3 m/s 745 mmHg 52%
    12:00 +40°C° 0 mm 3 m/s 744 mmHg 48%
    13:00 +40°C° 0 mm 2 m/s 744 mmHg 47%
    14:00 +41°C° 0 mm 2 m/s 743 mmHg 46%
    15:00 +41°C° 0 mm 2 m/s 743 mmHg 45%
    16:00 +41°C° 0 mm 2 m/s 743 mmHg 46%
    17:00 +40°C° 0 mm 2 m/s 743 mmHg 48%
    18:00 +40°C° 0 mm 3 m/s 743 mmHg 50%
    19:00 +39°C° 0,1 mm 3 m/s 743 mmHg 53%
    20:00 +38°C° 0,1 mm 4 m/s 744 mmHg 57%
    21:00 +37°C° 0,1 mm 5 m/s 745 mmHg 61%
    22:00 +36°C° 0,1 mm 5 m/s 745 mmHg 64%
    23:00 +35°C° 0,1 mm 5 m/s 745 mmHg 66%

    Amanhã, 21 Julho, Sábado

    Tempo Temperatura Precipitação Vento Pressão Humidade
    00:00 +34°C° 0,1 mm 6 m/s 746 mmHg 69%
    01:00 +34°C° 0 mm 5 m/s 746 mmHg 71%
    02:00 +33°C° 0 mm 5 m/s 745 mmHg 73%
    03:00 +33°C° 0 mm 5 m/s 745 mmHg 75%
    04:00 +32°C° 0,2 mm 5 m/s 745 mmHg 77%
    05:00 +32°C° 0,2 mm 5 m/s 745 mmHg 78%
    06:00 +32°C° 0,2 mm 5 m/s 746 mmHg 80%
    07:00 +32°C° 0,2 mm 5 m/s 746 mmHg 76%
    08:00 +33°C° 0,2 mm 6 m/s 746 mmHg 73%
    09:00 +34°C° 0,2 mm 7 m/s 747 mmHg 70%
    10:00 +35°C° 0 mm 7 m/s 746 mmHg 65%
    11:00 +36°C° 0 mm 7 m/s 746 mmHg 61%
    12:00 +38°C° 0 mm 7 m/s 746 mmHg 57%
    13:00 +38°C° 0 mm 7 m/s 745 mmHg 55%
    14:00 +39°C° 0 mm 7 m/s 745 mmHg 54%
    15:00 +39°C° 0 mm 7 m/s 744 mmHg 52%
    16:00 +38°C° 0 mm 6 m/s 744 mmHg 55%
    17:00 +38°C° 0 mm 6 m/s 744 mmHg 57%
    18:00 +36°C° 0 mm 6 m/s 744 mmHg 60%
    19:00 +35°C° 0 mm 6 m/s 745 mmHg 63%
    20:00 +34°C° 0 mm 6 m/s 745 mmHg 66%
    21:00 +33°C° 0 mm 7 m/s 746 mmHg 70%
    22:00 +33°C° 0 mm 7 m/s 746 mmHg 72%
    23:00 +32°C° 0 mm 7 m/s 746 mmHg 74%

    Depois de amanhã, 22 Julho, Domingo

    Tempo Temperatura Precipitação Vento Pressão Humidade
    00:00 +32°C° 0 mm 7 m/s 747 mmHg 77%
    01:00 +32°C° 0 mm 7 m/s 746 mmHg 77%
    02:00 +30°C° 0 mm 6 m/s 746 mmHg 78%
    03:00 +30°C° 0 mm 6 m/s 746 mmHg 79%
    04:00 +30°C° 0 mm 6 m/s 746 mmHg 79%
    05:00 +30°C° 0 mm 7 m/s 746 mmHg 79%
    06:00 +30°C° 0 mm 7 m/s 746 mmHg 80%
    07:00 +30°C° 0 mm 7 m/s 746 mmHg 78%
    08:00 +30°C° 0 mm 7 m/s 746 mmHg 77%
    09:00 +32°C° 0 mm 7 m/s 747 mmHg 76%
    10:00 +32°C° 0 mm 7 m/s 747 mmHg 72%
    11:00 +33°C° 0 mm 8 m/s 747 mmHg 69%
    12:00 +34°C° 0 mm 8 m/s 747 mmHg 66%
    13:00 +35°C° 0 mm 8 m/s 746 mmHg 63%
    14:00 +35°C° 0 mm 8 m/s 745 mmHg 61%
    15:00 +37°C° 0 mm 8 m/s 744 mmHg 58%
    16:00 +36°C° 0,1 mm 7 m/s 744 mmHg 60%
    17:00 +35°C° 0,1 mm 7 m/s 744 mmHg 62%
    18:00 +35°C° 0,1 mm 7 m/s 744 mmHg 63%
    19:00 +34°C° 0,1 mm 6 m/s 745 mmHg 67%
    20:00 +33°C° 0,1 mm 6 m/s 745 mmHg 71%
    21:00 +33°C° 0,1 mm 6 m/s 746 mmHg 74%
    22:00 +32°C° 0,4 mm 6 m/s 746 mmHg 76%
    23:00 +32°C° 0,4 mm 5 m/s 746 mmHg 78%

    23 Julho, Segunda-feira

    Tempo Temperatura Precipitação Vento Pressão Humidade
    00:00 +30°C° 0,4 mm 5 m/s 747 mmHg 80%
    01:00 +30°C° 0,4 mm 5 m/s 746 mmHg 81%
    02:00 +30°C° 0,4 mm 5 m/s 746 mmHg 82%
    03:00 +29°C° 0,4 mm 6 m/s 745 mmHg 83%
    04:00 +29°C° 0,1 mm 6 m/s 746 mmHg 83%
    05:00 +29°C° 0,1 mm 6 m/s 746 mmHg 83%
    06:00 +29°C° 0,1 mm 6 m/s 746 mmHg 83%
    07:00 +30°C° 0 mm 6 m/s 746 mmHg 80%
    08:00 +32°C° 0 mm 7 m/s 747 mmHg 77%
    09:00 +32°C° 0 mm 7 m/s 747 mmHg 73%
    10:00 +33°C° 0,1 mm 7 m/s 747 mmHg 71%
    11:00 +33°C° 0,1 mm 7 m/s 747 mmHg 69%
    12:00 +34°C° 0,1 mm 7 m/s 747 mmHg 66%
    13:00 +35°C° 0,4 mm 7 m/s 746 mmHg 64%
    14:00 +36°C° 0,4 mm 6 m/s 745 mmHg 62%
    15:00 +36°C° 0,4 mm 6 m/s 745 mmHg 59%
    16:00 +36°C° 0,8 mm 6 m/s 745 mmHg 61%
    17:00 +35°C° 0,8 mm 6 m/s 745 mmHg 63%
    18:00 +35°C° 0,8 mm 5 m/s 745 mmHg 65%
    19:00 +34°C° 1 mm 5 m/s 745 mmHg 69%
    20:00 +33°C° 1 mm 5 m/s 746 mmHg 73%
    21:00 +32°C° 1 mm 5 m/s 747 mmHg 77%
    22:00 +32°C° 0,5 mm 4 m/s 747 mmHg 78%
    23:00 +32°C° 0,5 mm 4 m/s 747 mmHg 79%

    24 Julho, Terça-feira

    Tempo Temperatura Precipitação Vento Pressão Humidade
    00:00 +32°C° 0,5 mm 4 m/s 747 mmHg 80%
    01:00 +30°C° 1,2 mm 4 m/s 747 mmHg 81%
    02:00 +30°C° 1,2 mm 4 m/s 747 mmHg 82%
    03:00 +30°C° 1,2 mm 4 m/s 746 mmHg 84%
    04:00 +30°C° 0,3 mm 4 m/s 747 mmHg 85%
    05:00 +30°C° 0,3 mm 4 m/s 747 mmHg 85%
    06:00 +29°C° 0,3 mm 4 m/s 747 mmHg 86%
    07:00 +30°C° 0,1 mm 4 m/s 748 mmHg 82%
    08:00 +32°C° 0,1 mm 5 m/s 748 mmHg 78%
    09:00 +33°C° 0,1 mm 5 m/s 748 mmHg 73%
    10:00 +34°C° 0,7 mm 5 m/s 748 mmHg 69%
    11:00 +35°C° 0,7 mm 4 m/s 748 mmHg 65%
    12:00 +36°C° 0,7 mm 4 m/s 748 mmHg 61%
    13:00 +36°C° 1,7 mm 4 m/s 747 mmHg 61%
    14:00 +36°C° 1,7 mm 3 m/s 747 mmHg 61%
    15:00 +36°C° 1,7 mm 3 m/s 746 mmHg 60%
    16:00 +36°C° 0,4 mm 3 m/s 746 mmHg 62%
    17:00 +36°C° 0,4 mm 2 m/s 746 mmHg 64%
    18:00 +35°C° 0,4 mm 2 m/s 746 mmHg 65%
    19:00 +35°C° 0,6 mm 2 m/s 746 mmHg 69%
    20:00 +34°C° 0,6 mm 2 m/s 747 mmHg 72%
    21:00 +32°C° 0,6 mm 2 m/s 747 mmHg 76%
    22:00 +32°C° 1 mm 2 m/s 747 mmHg 78%
    23:00 +31°C° 1 mm 2 m/s 747 mmHg 79%

    25 Julho, Quarta-feira

    Tempo Temperatura Precipitação Vento Pressão Humidade
    00:00 +31°C° 1 mm 2 m/s 747 mmHg 81%
    01:00 +31°C° 2,3 mm 2 m/s 746 mmHg 81%
    02:00 +31°C° 2,3 mm 2 m/s 746 mmHg 82%
    03:00 +30°C° 2,3 mm 2 m/s 745 mmHg 82%
    04:00 +30°C° 1,6 mm 2 m/s 746 mmHg 82%
    05:00 +30°C° 1,6 mm 2 m/s 746 mmHg 83%
    06:00 +30°C° 1,6 mm 2 m/s 746 mmHg 83%
    07:00 +31°C° 0,3 mm 1 m/s 746 mmHg 78%
    08:00 +32°C° 0,3 mm 1 m/s 746 mmHg 73%
    09:00 +33°C° 0,3 mm 1 m/s 747 mmHg 68%
    10:00 +34°C° 0,4 mm 1 m/s 746 mmHg 65%
    11:00 +36°C° 0,4 mm 2 m/s 746 mmHg 61%
    12:00 +37°C° 0,4 mm 2 m/s 746 mmHg 57%
    13:00 +37°C° 1,3 mm 2 m/s 745 mmHg 58%
    14:00 +37°C° 1,3 mm 3 m/s 745 mmHg 59%
    15:00 +37°C° 1,3 mm 3 m/s 744 mmHg 59%
    16:00 +36°C° 0,9 mm 3 m/s 744 mmHg 62%
    17:00 +36°C° 0,9 mm 3 m/s 744 mmHg 66%
    18:00 +35°C° 0,9 mm 3 m/s 744 mmHg 69%
    19:00 +35°C° 0,8 mm 3 m/s 745 mmHg 72%
    20:00 +34°C° 0,8 mm 2 m/s 745 mmHg 76%
    21:00 +32°C° 0,8 mm 2 m/s 746 mmHg 79%
    22:00 +32°C° 1,6 mm 2 m/s 746 mmHg 80%
    23:00 +32°C° 1,6 mm 2 m/s 746 mmHg 81%
    Mostrar mais